| time (UTC) | temp F | wind direction | speed MPH | gust MPH | rain 1hr in | rain 24hr in | rain mn in | humidity % | barometer mb |
| 20260504034536 | 57 | 360 | 5.0 | 16.0 | 0.00 | 0.00 | 0.00 | 39 | 1007.4 |
| 20260504033038 | 58 | 360 | 6.0 | 9.0 | 0.00 | 0.00 | 0.00 | 37 | 1006.9 |
| 20260504031534 | 59 | 360 | 6.0 | 10.0 | 0.00 | 0.00 | 0.00 | 35 | 1006.7 |
| 20260504030033 | 60 | 360 | 6.0 | 12.0 | 0.00 | 0.00 | 0.00 | 34 | 1006.6 |
| 20260504024533 | 61 | 360 | 9.0 | 13.0 | 0.00 | 0.00 | 0.00 | 33 | 1006.5 |
| 20260504023033 | 63 | 360 | 10.0 | 17.0 | 0.00 | 0.00 | 0.00 | 31 | 1006.4 |
| 20260504021531 | 64 | 360 | 11.0 | 20.0 | 0.00 | 0.00 | 0.00 | 30 | 1006.3 |
| 20260504020031 | 66 | 360 | 10.0 | 15.0 | 0.00 | 0.00 | 0.00 | 28 | 1006.1 |
| 20260504014545 | 67 | 360 | 9.0 | 17.0 | 0.00 | 0.00 | 0.00 | 26 | 1006.0 |
| 20260504013039 | 70 | 360 | 14.0 | 20.0 | 0.00 | 0.00 | 0.00 | 23 | 1005.9 |
| 20260504011530 | 71 | 360 | 12.0 | 20.0 | 0.00 | 0.00 | 0.00 | 22 | 1005.9 |
| 20260504010028 | 72 | 360 | 10.0 | 22.0 | 0.00 | 0.00 | 0.00 | 23 | 1005.8 |
| 20260504004529 | 72 | 360 | 12.0 | 19.0 | 0.00 | 0.00 | 0.00 | 24 | 1005.9 |
| 20260504003026 | 72 | 360 | 12.0 | 21.0 | 0.00 | 0.00 | 0.00 | 25 | 1006.1 |
| 20260504001525 | 72 | 360 | 12.0 | 22.0 | 0.00 | 0.00 | 0.00 | 23 | 1006.2 |
| 20260504000037 | 73 | 360 | 14.0 | 23.0 | 0.00 | 0.00 | 0.00 | 24 | 1006.3 |
| 20260503234522 | 73 | 360 | 16.0 | 22.0 | 0.00 | 0.00 | 0.00 | 22 | 1006.4 |
| 20260503233024 | 73 | 360 | 15.0 | 20.0 | 0.00 | 0.00 | 0.00 | 23 | 1006.5 |
| 20260503231519 | 73 | 360 | 16.0 | 24.0 | 0.00 | 0.00 | 0.00 | 22 | 1006.5 |
| 20260503230018 | 74 | 360 | 12.0 | 20.0 | 0.00 | 0.00 | 0.00 | 21 | 1006.6 |
| 20260503224516 | 73 | 360 | 12.0 | 23.0 | 0.00 | 0.00 | 0.00 | 21 | 1006.9 |
| 20260503223015 | 73 | 360 | 13.0 | 25.0 | 0.00 | 0.00 | 0.00 | 21 | 1006.9 |
| 20260503221513 | 73 | 360 | 20.0 | 25.0 | 0.00 | 0.00 | 0.00 | 21 | 1007.1 |
| 20260503220014 | 73 | 360 | 15.0 | 21.0 | 0.00 | 0.00 | 0.00 | 20 | 1007.3 |
| 20260503214521 | 73 | 360 | 15.0 | 25.0 | 0.00 | 0.00 | 0.00 | 21 | 1007.5 |
| 20260503213006 | 73 | 360 | 14.0 | 23.0 | 0.00 | 0.00 | 0.00 | 21 | 1007.9 |
| 20260503211506 | 73 | 360 | 15.0 | 22.0 | 0.00 | 0.00 | 0.00 | 20 | 1008.0 |
| 20260503210009 | 72 | 360 | 13.0 | 18.0 | 0.00 | 0.00 | 0.00 | 21 | 1008.3 |
| 20260503204504 | 72 | 360 | 14.0 | 22.0 | 0.00 | 0.00 | 0.00 | 21 | 1008.5 |
| 20260503203001 | 72 | 360 | 16.0 | 28.0 | 0.00 | 0.00 | 0.00 | 22 | 1008.7 |
| 20260503201600 | 71 | 360 | 11.0 | 21.0 | 0.00 | 0.00 | 0.00 | 22 | 1008.7 |
| 20260503200058 | 72 | 360 | 12.0 | 20.0 | 0.00 | 0.00 | 0.00 | 21 | 1009.0 |
| 20260503194614 | 71 | 360 | 15.0 | 22.0 | 0.00 | 0.00 | 0.00 | 23 | 1009.3 |
| 20260503193053 | 70 | 360 | 15.0 | 20.0 | 0.00 | 0.00 | 0.00 | 22 | 1009.6 |
| 20260503191554 | 71 | 360 | 13.0 | 20.0 | 0.00 | 0.00 | 0.00 | 22 | 1009.7 |
| 20260503190059 | 69 | 360 | 11.0 | 20.0 | 0.00 | 0.00 | 0.00 | 23 | 1009.9 |
| 20260503184549 | 69 | 360 | 9.0 | 20.0 | 0.00 | 0.00 | 0.00 | 23 | 1010.2 |
| 20260503183051 | 69 | 360 | 13.0 | 20.0 | 0.00 | 0.00 | 0.00 | 24 | 1010.2 |
| 20260503181540 | 69 | 360 | 12.0 | 21.0 | 0.00 | 0.00 | 0.00 | 23 | 1010.5 |
| 20260503180039 | 69 | 360 | 12.0 | 21.0 | 0.00 | 0.00 | 0.00 | 25 | 1010.6 |
| 20260503174536 | 69 | 360 | 14.0 | 22.0 | 0.00 | 0.00 | 0.00 | 25 | 1010.9 |
| 20260503173056 | 68 | 360 | 16.0 | 20.0 | 0.00 | 0.00 | 0.00 | 24 | 1011.1 |
| 20260503171535 | 68 | 360 | 12.0 | 19.0 | 0.00 | 0.00 | 0.00 | 27 | 1011.2 |
| 20260503081525 | 39 | 360 | 1.0 | 4.0 | 0.00 | 0.00 | 0.00 | 70 | 1014.4 |
| 20260503071523 | 39 | 360 | 2.0 | 9.0 | 0.00 | 0.00 | 0.00 | 66 | 1014.7 |
| 20260503054555 | 46 | 360 | 2.0 | 5.0 | 0.00 | 0.00 | 0.00 | 60 | 1014.9 |
| 20260503053053 | 43 | 360 | 3.0 | 9.0 | 0.00 | 0.00 | 0.00 | 62 | 1015.0 |
| 20260503051551 | 50 | 360 | 0.0 | 0.0 | 0.00 | 0.00 | 0.00 | 54 | 1014.8 |
| 20260503050051 | 51 | 360 | 1.0 | 3.0 | 0.00 | 0.00 | 0.00 | 53 | 1014.7 |
| 20260503044554 | 50 | 360 | 0.0 | 0.0 | 0.00 | 0.00 | 0.00 | 54 | 1014.8 |
| 20260503043051 | 51 | 360 | 0.0 | 3.0 | 0.00 | 0.00 | 0.00 | 53 | 1014.6 |
| 20260503041551 | 52 | 360 | 0.0 | 0.0 | 0.00 | 0.00 | 0.00 | 52 | 1014.7 |
| 20260503040049 | 52 | 360 | 0.0 | 3.0 | 0.00 | 0.00 | 0.00 | 50 | 1014.8 |